DW5595 Weather Reports


Display with metric or nautical units.
time (UTC)temp
F
wind
direction
speed
MPH
gust
MPH
rain 1hr
in
rain 24hr
in
rain mn
in
humidity
%
barometer
mb
20200703112358 66 144 0.0 0.0 0.00 0.00 0.00 95 1017.4
20200703111403 66 261 0.0 0.0 0.00 0.00 0.00 95 1017.4
20200703110408 66 258 0.0 0.0 0.00 0.00 0.00 95 1017.3
20200703105411 65 258 0.0 0.0 0.00 0.00 0.00 95 1017.3
20200703104413 65 236 0.0 0.0 0.00 0.00 0.00 95 1017.3
20200703103356 65 236 0.0 0.0 0.00 0.00 0.00 95 1017.3
20200703102402 66 236 0.0 0.0 0.00 0.00 0.00 95 1017.2
20200703101407 66 236 0.0 0.0 0.00 0.00 0.00 95 1017.2
20200703100410 66 236 0.0 0.0 0.00 0.00 0.00 95 1017.1
20200703095413 66 236 0.0 0.0 0.00 0.00 0.00 95 1017.0
20200703094358 66 236 0.0 0.0 0.00 0.00 0.00 95 1016.9
20200703093401 66 236 0.0 0.0 0.00 0.00 0.00 95 1016.8
20200703092405 66 236 0.0 0.0 0.00 0.00 0.00 95 1016.7
20200703091409 67 236 0.0 0.0 0.00 0.00 0.00 95 1016.7
20200703090355 66 236 0.0 0.0 0.00 0.00 0.00 95 1016.7
20200703085400 67 236 0.0 0.0 0.00 0.00 0.00 95 1016.7
20200703084403 67 236 0.0 0.0 0.00 0.00 0.00 95 1016.7
20200703083406 67 236 0.0 0.0 0.00 0.00 0.00 95 1016.7
20200703082408 67 236 0.0 0.0 0.00 0.00 0.00 95 1016.5
20200703081414 67 236 0.0 0.0 0.00 0.00 0.00 95 1016.5
20200703080401 67 236 0.0 0.0 0.00 0.00 0.00 95 1016.5
20200703075403 67 236 0.0 0.0 0.00 0.00 0.00 95 1016.4
20200703074407 68 236 0.0 0.0 0.00 0.00 0.00 95 1016.5
20200703073414 68 236 0.0 0.0 0.00 0.00 0.00 95 1016.5
20200703072356 68 236 0.0 0.0 0.00 0.00 0.00 94 1016.7
20200703071359 68 236 0.0 0.0 0.00 0.00 0.00 94 1016.7
20200703070402 68 236 0.0 0.0 0.00 0.00 0.00 95 1016.6
20200703065409 69 236 0.0 0.0 0.00 0.00 0.00 94 1016.7
20200703064413 69 236 0.0 0.0 0.00 0.00 0.00 95 1016.8
20200703063356 69 236 0.0 0.0 0.00 0.00 0.00 95 1016.9
20200703062401 69 236 0.0 0.0 0.00 0.00 0.00 95 1017.0
20200703061406 69 236 0.0 0.0 0.00 0.00 0.00 95 1017.0
20200703060408 69 236 0.0 0.0 0.00 0.00 0.00 95 1017.1
20200703055413 69 236 0.0 0.0 0.00 0.00 0.00 95 1017.0
20200703054413 69 236 0.0 0.0 0.00 0.00 0.00 94 1017.1
20200703053359 69 236 0.0 0.0 0.00 0.00 0.00 94 1017.0
20200703052400 69 236 0.0 0.0 0.00 0.00 0.00 94 1017.0
20200703051401 69 236 0.0 0.0 0.00 0.00 0.00 94 1017.0
20200703050402 69 236 0.0 0.0 0.00 0.00 0.00 94 1017.0
20200703045410 69 236 0.0 0.0 0.00 0.00 0.00 94 1017.0
20200703044411 70 236 0.0 0.0 0.00 0.00 0.00 94 1016.9
20200703043412 70 236 0.0 0.0 0.00 0.00 0.00 94 1016.9
20200703042414 70 236 0.0 0.0 0.00 0.00 0.00 94 1016.8
20200703041359 70 236 0.0 0.0 0.00 0.00 0.00 94 1016.8
20200703040401 70 236 0.0 0.0 0.00 0.00 0.00 94 1016.7
20200703035404 70 236 0.0 0.0 0.00 0.00 0.00 94 1016.8
20200703034405 71 236 0.0 0.0 0.00 0.00 0.00 93 1016.7
20200703033408 71 236 0.0 0.0 0.00 0.00 0.00 93 1016.7
20200703032414 71 236 0.0 0.0 0.00 0.00 0.00 93 1016.7
20200703031356 71 236 0.0 0.0 0.00 0.00 0.00 93 1016.5
20200703030358 72 236 0.0 0.0 0.00 0.00 0.00 93 1016.4
20200703025400 72 236 0.0 0.0 0.00 0.00 0.00 92 1016.4
20200703024407 72 236 0.0 0.0 0.00 0.00 0.00 92 1016.4
20200703023410 72 236 0.0 0.0 0.00 0.00 0.00 92 1016.3
20200703022414 72 236 0.0 0.0 0.00 0.00 0.00 92 1016.0
20200703021355 73 236 0.0 0.0 0.00 0.00 0.00 91 1016.0
20200703020400 73 236 0.0 0.0 0.00 0.00 0.00 92 1015.8
20200703015404 73 236 0.0 0.0 0.00 0.00 0.00 91 1015.7
20200703014406 74 236 0.0 0.0 0.00 0.00 0.00 90 1015.6
20200703013406 74 236 0.0 0.0 0.00 0.00 0.00 90 1015.4
20200703012408 75 236 0.0 0.0 0.00 0.00 0.00 89 1015.1
20200703011411 75 236 0.0 0.0 0.00 0.00 0.00 88 1015.1
20200703010412 76 236 0.0 0.0 0.00 0.00 0.00 87 1015.0
20200703005414 76 236 0.0 0.0 0.00 0.00 0.00 86 1014.9
20200703004401 77 236 0.0 0.0 0.00 0.00 0.00 86 1014.9
20200703003404 77 236 0.0 0.0 0.00 0.00 0.00 83 1014.9
20200703002406 78 236 0.0 0.0 0.00 0.00 0.00 81 1014.9
20200703001408 79 347 0.0 0.0 0.00 0.00 0.00 80 1014.9
20200703000414 79 40 0.0 0.0 0.00 0.00 0.00 77 1014.8
20200702235355 80 11 0.0 0.0 0.00 0.00 0.00 74 1014.8
20200702234411 81 119 0.0 0.0 0.00 0.00 0.00 73 1014.8
20200702233355 82 119 0.0 0.0 0.00 0.00 0.00 70 1014.7
20200702232401 83 119 0.0 0.0 0.00 0.00 0.00 68 1014.6
20200702231403 83 350 0.0 0.0 0.00 0.00 0.00 66 1014.5
20200702230405 84 45 0.0 0.0 0.00 0.00 0.00 65 1014.5
20200702225408 85 45 0.0 0.0 0.00 0.05 0.00 62 1014.6
20200702224409 85 45 0.0 0.0 0.00 0.05 0.00 61 1014.5
20200702223358 85 45 0.0 2.0 0.00 0.05 0.00 59 1014.4
20200702222357 86 45 0.0 0.0 0.00 0.05 0.00 61 1014.6
20200702221401 87 45 0.0 2.0 0.00 0.05 0.00 59 1014.6
20200702220403 87 49 1.0 3.0 0.00 0.05 0.00 54 1014.7
20200702215409 87 40 1.0 3.0 0.00 0.05 0.00 55 1014.8
20200702214410 87 135 0.0 3.0 0.00 0.05 0.00 60 1014.7
20200702213415 87 42 0.0 3.0 0.00 0.05 0.00 54 1014.7
20200702212355 87 49 1.0 2.0 0.00 0.05 0.00 57 1014.8
20200702211402 87 123 0.0 3.0 0.00 0.05 0.00 54 1014.7
20200702210404 87 15 0.0 3.0 0.00 0.05 0.00 57 1014.7
20200702205408 88 45 0.0 2.0 0.00 0.05 0.00 58 1014.8
20200702204410 87 48 0.0 2.0 0.00 0.05 0.00 58 1014.8
20200702203357 87 48 1.0 2.0 0.00 0.05 0.00 57 1014.9
20200702202358 87 50 0.0 3.0 0.00 0.05 0.00 56 1014.9
20200702201401 87 46 1.0 5.0 0.00 0.05 0.00 53 1014.9
20200702200404 87 192 2.0 7.0 0.00 0.05 0.00 58 1014.9
20200702195411 87 13 0.0 6.0 0.00 0.05 0.00 52 1014.9
20200702194413 87 45 1.0 7.0 0.00 0.05 0.00 54 1015.0
20200702193354 87 32 1.0 3.0 0.00 0.05 0.00 52 1014.9
20200702192358 87 187 0.0 7.0 0.00 0.05 0.00 61 1015.1
20200702191401 86 196 0.0 4.0 0.00 0.05 0.00 58 1015.2
20200702190408 86 180 0.0 3.0 0.00 0.05 0.00 59 1015.2
20200702185411 86 184 0.0 4.0 0.00 0.05 0.00 59 1015.3
20200702184355 86 78 0.0 3.0 0.00 0.05 0.00 64 1015.2
20200702183358 86 45 2.0 7.0 0.00 0.05 0.00 58 1015.3
20200702182406 85 74 1.0 3.0 0.00 0.05 0.00 65 1015.4
20200702181409 85 32 1.0 6.0 0.00 0.05 0.00 60 1015.5
20200702180412 86 26 2.0 7.0 0.00 0.05 0.00 67 1015.6
20200702175356 85 47 1.0 5.0 0.00 0.05 0.00 61 1015.5
20200702174404 85 43 1.0 3.0 0.00 0.05 0.00 65 1015.6
20200702173407 85 43 0.0 7.0 0.00 0.05 0.00 67 1015.6
20200702172410 85 30 1.0 6.0 0.00 0.05 0.00 64 1015.6
20200702171355 85 34 4.0 6.0 0.00 0.05 0.00 66 1015.7
20200702170401 83 34 1.0 5.0 0.00 0.05 0.00 66 1015.9
20200702165404 83 29 5.0 8.0 0.00 0.05 0.00 65 1015.9
20200702164406 83 32 2.0 7.0 0.00 0.05 0.00 64 1015.8
20200702163409 83 23 4.0 7.0 0.00 0.05 0.00 64 1015.9
20200702162355 83 40 2.0 7.0 0.00 0.05 0.00 66 1016.0
20200702161403 83 56 3.0 7.0 0.00 0.05 0.00 68 1016.0
20200702160407 83 53 2.0 5.0 0.00 0.05 0.00 66 1016.2
20200702155410 83 53 0.0 3.0 0.00 0.05 0.00 68 1016.1
20200702154359 82 36 1.0 4.0 0.00 0.05 0.00 71 1016.1
20200702153402 81 48 0.0 6.0 0.00 0.05 0.00 70 1016.0
20200702152405 81 53 1.0 7.0 0.00 0.05 0.00 72 1016.1
20200702151408 81 36 2.0 7.0 0.00 0.05 0.00 70 1016.0
20200702150354 80 38 1.0 6.0 0.00 0.05 0.00 72 1016.0
20200702145357 80 30 1.0 4.0 0.00 0.05 0.00 71 1016.0
20200702144403 80 5 1.0 4.0 0.00 0.05 0.00 74 1016.0
20200702143403 79 48 2.0 5.0 0.00 0.05 0.00 73 1015.9
20200702142407 79 43 0.0 6.0 0.00 0.05 0.00 73 1015.9
20200702141413 78 38 3.0 7.0 0.00 0.05 0.00 75 1016.0
20200702140356 78 48 3.0 7.0 0.00 0.05 0.00 77 1015.9
20200702135358 77 40 0.0 6.0 0.00 0.05 0.00 77 1016.0
20200702134401 77 43 2.0 4.0 0.00 0.05 0.00 80 1016.0
20200702133407 76 47 1.0 5.0 0.00 0.05 0.00 83 1016.0
20200702132410 76 47 2.0 5.0 0.00 0.05 0.00 84 1016.0
20200702131413 75 32 0.0 4.0 0.00 0.05 0.00 85 1016.0
20200702130356 74 30 2.0 6.0 0.00 0.05 0.00 84 1015.9
20200702125402 74 39 1.0 6.0 0.00 0.05 0.00 86 1015.8
20200702124405 72 159 0.0 3.0 0.00 0.05 0.00 91 1015.6
20200702123408 71 160 0.0 3.0 0.00 0.05 0.00 94 1015.5
20200702122410 70 30 1.0 4.0 0.00 0.05 0.00 94 1015.3
20200702121354 69 199 0.0 0.0 0.00 0.05 0.00 95 1015.2
20200702120356 69 199 0.0 2.0 0.00 0.05 0.00 95 1015.1
20200702115358 68 271 0.0 2.0 0.00 0.05 0.00 95 1015.1
20200702114401 67 111 1.0 2.0 0.00 0.05 0.00 95 1015.0
20200702113408 66 111 0.0 0.0 0.00 0.05 0.00 95 1015.0